sat.trackr.live / text

‹ back to catalog

STARLINK-2483

NORAD 48140 · 2021-027BA

PAYLOAD ACTIVE UNKNOWN

§ Identity

Operator
Country
US
Launch date
2021-04-07
Launch site
AFETR
Launch vehicle
Mass (kg)
RCS (m²)

Purposes: comms

External: N2YO · Heavens-Above · Gunter

§ Orbital elements

Epoch: 2026-05-24T18:41:48.393312Z

Period
94.01 min
Inclination
53.1587°
Eccentricity
0.0001382
Mean motion
15.31705068 rev/d
Perigee alt
469.8 km
Apogee alt
471.7 km
Semi-major
6,848.9 km
B*
4.6199e-5
RAAN
171.7803°
Arg perigee
80.4420°
Mean anomaly
279.6738°
Rev number
28,416

§ Raw data

STARLINK-24831 48140U 21027BA  26144.77903233  .00001069  00000+0  46199-4 0  99982 48140  53.1587 171.7803 0001382  80.4420 279.6738 15.31705068284166

JSON: /api/v1/satellites/48140 · /tle

For live sub-satellite position, see the globe view (requires WebGL).

§ Visibility from observer

Set your observer location to see the next 7 days of passes ≥ 10°. The values pass through the URL so the page stays shareable.

No JS? Fill the form by hand. The geolocation button needs JavaScript.